Showing default

DAQI-2, 68760

Orbit data source: Space-Track

DAQI-2, 68760 is a payload satellite owned by CRESDA (CN) in SSO that was launched on Fri, 17 Apr 2026 UTC via a CHANG ZHENG 4C launch vehicle from the Jiuquan Satellite Launch Center, China (JSC). Payload-class satellites include a variety of spacecraft equipped with specific instruments for various scientific and technological missions. These include communications satellites like Starlink; space stations such as the ISS; scientific satellites like the Hubble; Earth observation satellites from companies like Planet Labs, Umbra, and HawkEye 360; GPS; miniature CubeSats for education and research; and military/defense satellites.

Loading next visibility...
Identifier
68760, 2026-084A
Orbit
SSO
Country
Flag of CNCN / PRC
Related business
Manufacturer
CAST
Mission
Operational spacecraft
Bus & Motor
ZY, AOCS 20N
Mass
2,640 kg wet, ~2,300 kg dry
Launch date (UTC)
2026-04-17 (2 months ago)
Launch vehicle
CHANG ZHENG 4C
Launch site
Jiuquan Satellite Launch Center, China (JSC)
Object type
Payload
Rocket body
Debris
Shape & HBR
Unknown shape, 14.5 m
Radar Cross Section
Large (>1 m²)

Expand to show TLE details & history
Last TLE update: 8 hours ago

TLE from 8 hours ago
0 DAQI-2
1 68760U 26084A   26171.53516248  .00000018  00000-0  14215-4 0  9994
2 68760  98.2862 245.6880 0003400  93.6813 266.4774 14.57576841  9388
Epoch: 2026-06-20T12:50Z
TLE epoch observation values (Epoch: 2026-06-20T12:50:38.038Z)
Latitude
-0.00004°
Longitude
144.28112°
Altitude
704.137 km
Speed
7.504 km/s
True Right ascension
16h 22m 45s
True Declination
0° 00' 00"
Sunlit
Object was in full shadow at epoch
Visualization orbit readout
Latitude
Unknown
Longitude
Unknown
Altitude
Unknown
Speed
Unknown
Apparent Right ascension
Unknown
Apparent Declination
Unknown
Sunlit
N/A
Visualization observer readout
Local Sidereal Time
07:24:22
Azimuth
Unknown
Elevation
Unknown
Doppler factor
Unknown
Orbital elements
Apogee altitude
700.503 km
Perigee altitude
695.691 km
Semi-major axis
7,076.234 km
Eccentricity
0.00034
Inclination
98.2862°
RAAN
245.688°
Arg. of periapsis
93.6813°
True anomaly
266.43851°
Mean anomaly
266.4774°
Eccentric anomaly
266.45796°
Mean motion
3.64619 °/min
Orbital period
98.73 mins
BSTAR
0.000014215
Loading maneuver chart data...
Computing Atmospheric mass density...
Loading historical data...
Loading historical data...
Loading historical data...
Loading historical data...
Loading historical data...
Loading historical data...
Loading historical data...
Other satellites on launch #84 in the year 2026 (2026-04-17 UTC)

Documentation

Showing up to 5 results
|